Tracking 19795 objects as of 19-Jul-2019
HD Live streaming from Space Station
objects crossing your sky now

DELTA 1 DEB

Track DELTA 1 DEB now!
10-day predictions


NORAD ID: 7014
Int'l Code: 1973-086E
Perigee: 875.7 km
Apogee: 1,488.1 km
Inclination: 101.7 °
Period: 108.9 minutes
Semi major axis: 7552 km
RCS: 0.109 m2 (medium)
Launch date: November 6, 1973
Source: United States (US)
Launch site: AIR FORCE WESTERN TEST RANGE (AFWTR)

Note: This is SATELLITE DEBRIS
aabbcc
Your satellite tracking list
Your tracking list is empty




NASA's NSSDC Master Catalog

Two Line Element Set (TLE):
1  7014U 73086E   19200.17891917 -.00000120  00000-0 -10566-3 0  9997
2  7014 101.6843 283.0836 0405412  73.9545 290.5814 13.22608255202665
Source of the keplerian elements: AFSPC